Temp
18 18 18 19 19 19 20 19 19 19 20 20 20 20 20 20 20 20 20 20 20 20 20 20 19 20 20 20 20 20 20 21 21 21 21 21 21 21 21 21 21 21
18 18 19 19 19 19 19 19 19 19 20 20 20 20 20 20 20 20 20 20 20 20 20 20 19 19 20 20 20 20 21 21 21 21 21 21 21 21 21 21 21 21
18 18 19 19 19 19 19 19 19 19 20 20 20 20 20 20 20 20 20 20 20 20 20 20 19 19 20 20 20 20 21 21 21 21 21 21 21 21 21 21 21 21
19 19 19 19 19 19 19 19 19 19 19 19 20 20 20 20 20 20 20 20 20 20 20 20 19 19 19 20 20 20 20 21 21 21 21 21 21 21 21 21 20 20
19 19 19 19 19 19 19 19 19 19 19 19 19 19 19 19 19 19 19 20 20 20 20 20 20 19 19 20 20 20 20 20 20 21 21 21 21 21 21 21 20 20
19 19 19 19 19 19 19 19 19 19 19 19 19 19 19 19 19 19 19 19 20 20 20 20 20 19 19 20 20 20 20 20 20 20 21 21 21 20 21 21 20 20
19 19 19 19 19 19 19 19 19 19 19 19 19 19 19 19 19 19 19 19 19 19 19 20 20 20 19 19 20 20 20 20 20 20 20 21 21 20 20 20 21 20
19 19 19 19 19 19 20 19 19 19 19 19 19 19 19 19 19 19 19 19 19 19 19 19 20 20 20 20 20 20 20 21 20 21 21 20 21 21 21 20 20 20
19 19 19 19 19 19 20 20 20 20 20 19 19 19 19 19 19 19 19 19 19 19 19 19 19 20 20 20 20 20 21 21 21 21 21 21 21 21 20 20 20 20
19 19 19 19 19 19 20 20 20 20 20 20 20 20 20 20 19 20 20 20 20 20 20 20 20 20 20 20 20 20 20 21 21 20 21 21 21 20 20 20 20 20
20 20 19 20 20 20 20 20 20 20 20 20 20 20 20 20 20 20 20 20 20 20 20 20 20 20 20 20 20 20 20 21 21 20 20 20 20 20 20 20 20 20
20 20 20 20 20 20 20 20 20 20 20 20 20 20 20 20 20 20 20 20 20 20 20 20 20 20 20 20 20 20 20 20 20 20 20 20 20 20 20 20 20 20
20 20 20 20 20 20 20 20 20 20 20 20 20 20 20 20 20 20 20 21 21 20 20 20 20 20 20 20 20 20 20 20 20 20 20 20 20 20 20 20 20 20
20 20 20 20 20 20 20 20 20 20 20 20 20 20 20 20 21 21 21 21 21 21 21 20 20 20 20 20 20 20 20 20 20 20 20 20 20 20 20 20 20 20
20 20 20 20 20 20 20 20 20 20 20 20 20 21 21 21 21 21 21 21 21 21 21 21 20 20 20 20 20 21 21 21 20 20 20 20 20 20 20 20 20 20
20 20 20 20 20 20 20 20 21 21 20 21 21 21 21 21 21 21 21 21 21 21 21 21 20 20 20 20 20 20 21 21 20 20 20 20 20 20 20 20 20 20
20 20 20 20 20 20 20 20 21 21 21 21 21 21 21 21 21 21 21 21 21 21 21 21 21 21 21 20 20 20 20 21 21 20 20 20 20 20 20 20 20 20
20 20 20 20 20 20 20 20 20 21 21 21 21 21 21 21 21 21 21 21 21 21 21 21 21 21 21 20 20 20 20 20 20 20 20 20 20 20 20 20 20 20
20 20 20 20 21 20 20 21 20 21 21 21 21 21 21 21 21 21 21 21 21 21 21 21 21 21 20 20 20 20 20 20 20 20 20 20 20 20 20 20 20 20
20 20 20 21 21 21 21 21 21 21 21 21 21 21 21 21 21 21 21 21 21 21 21 21 21 21 21 21 20 20 20 20 20 20 20 20 20 20 20 20 20 20
20 20 20 20 21 21 21 21 21 21 21 21 21 21 21 21 21 21 22 22 21 21 21 21 21 21 21 21 21 20 20 20 20 20 20 20 20 20 20 20 20 20
20 20 20 20 20 20 20 20 21 21 21 21 21 21 21 21 21 21 22 22 22 21 21 21 21 21 21 21 21 21 20 20 20 20 20 20 20 20 20 20 20 20
19 19 19 20 20 20 20 20 20 20 20 21 21 21 21 21 21 21 22 22 21 21 21 21 21 21 21 21 21 20 20 20 20 20 20 20 20 20 20 20 20 20
18 18 19 19 19 19 19 20 20 20 20 20 20 20 21 21 21 21 22 21 21 21 21 21 21 21 21 21 21 20 20 20 20 20 20 20 20 20 20 20 20 20
18 18 19 19 19 19 19 19 19 19 19 19 19 20 20 21 21 21 21 21 21 21 21 21 21 21 21 21 21 20 20 20 20 20 20 20 20 20 20 19 19 20
18 18 18 19 19 19 19 19 19 19 19 19 19 20 20 21 20 20 21 21 21 21 21 21 21 21 21 21 20 20 20 20 20 20 20 20 20 20 20 19 19 20
Height
1538 1540 1542 1544 1546 1548 1549 1552 1553 1554 1556 1557 1559 1561 1562 1564 1565 1567 1568 1569 1570 1571 1573 1574 1576 1577 1579 1579 1581 1582 1583 1584 1584 1584 1584 1585 1585 1586 1586 1587 1587 1588
1537 1539 1541 1543 1545 1547 1549 1551 1553 1554 1555 1556 1558 1560 1561 1563 1564 1566 1567 1568 1569 1571 1572 1573 1575 1576 1577 1578 1579 1581 1582 1582 1583 1583 1583 1584 1584 1585 1585 1586 1586 1587
1536 1538 1540 1542 1544 1546 1548 1550 1552 1553 1554 1555 1557 1559 1561 1562 1564 1565 1566 1567 1568 1570 1571 1572 1574 1575 1576 1577 1578 1580 1580 1581 1582 1582 1583 1583 1583 1584 1584 1585 1585 1586
1536 1538 1539 1541 1543 1545 1547 1549 1551 1552 1554 1555 1556 1558 1560 1561 1563 1564 1565 1567 1567 1569 1570 1571 1573 1574 1575 1576 1577 1579 1579 1580 1581 1581 1582 1582 1582 1583 1583 1584 1584 1585
1536 1538 1539 1541 1542 1544 1546 1547 1549 1551 1553 1554 1556 1557 1559 1560 1562 1563 1565 1566 1567 1568 1569 1571 1572 1573 1574 1575 1576 1577 1578 1579 1580 1580 1580 1581 1581 1582 1582 1583 1583 1584
1536 1538 1539 1540 1542 1543 1545 1547 1549 1550 1552 1554 1555 1556 1558 1559 1561 1562 1564 1565 1566 1567 1568 1569 1571 1572 1573 1574 1575 1576 1577 1577 1578 1579 1579 1580 1580 1581 1581 1582 1582 1583
1535 1537 1539 1540 1541 1543 1544 1546 1548 1549 1551 1553 1554 1555 1557 1558 1560 1561 1562 1564 1565 1566 1567 1568 1569 1570 1572 1573 1573 1574 1575 1576 1577 1577 1577 1578 1579 1580 1580 1581 1581 1581
1535 1536 1538 1540 1541 1542 1543 1545 1547 1548 1550 1551 1552 1554 1555 1557 1558 1560 1561 1562 1563 1564 1565 1566 1568 1569 1570 1571 1572 1573 1573 1574 1575 1575 1576 1577 1577 1578 1579 1579 1580 1580
1534 1536 1537 1539 1540 1541 1542 1544 1545 1547 1548 1549 1551 1552 1554 1555 1557 1558 1559 1560 1561 1562 1564 1565 1566 1567 1568 1569 1570 1571 1572 1572 1573 1574 1574 1575 1576 1576 1577 1578 1578 1578
1533 1535 1536 1537 1539 1540 1541 1542 1544 1545 1547 1548 1549 1550 1552 1553 1555 1556 1557 1558 1559 1561 1562 1563 1564 1565 1566 1567 1568 1569 1570 1571 1572 1572 1573 1574 1574 1575 1576 1576 1576 1577
1532 1533 1535 1536 1537 1539 1540 1541 1542 1543 1545 1546 1547 1549 1550 1551 1552 1554 1555 1557 1558 1559 1560 1561 1562 1563 1564 1565 1566 1567 1568 1569 1570 1571 1571 1572 1573 1573 1574 1575 1575 1575
1530 1531 1533 1534 1536 1537 1538 1540 1541 1542 1543 1544 1545 1547 1548 1549 1550 1551 1553 1554 1555 1556 1557 1559 1560 1560 1561 1562 1564 1565 1566 1567 1568 1569 1569 1570 1571 1572 1572 1573 1573 1573
1528 1529 1531 1532 1534 1535 1536 1538 1539 1540 1541 1542 1543 1545 1546 1547 1548 1549 1550 1551 1553 1554 1555 1556 1557 1558 1559 1560 1562 1563 1564 1565 1566 1567 1568 1568 1569 1570 1570 1571 1571 1571
1526 1528 1529 1530 1532 1533 1535 1536 1537 1538 1539 1540 1542 1543 1544 1545 1546 1547 1548 1549 1550 1551 1553 1554 1555 1556 1557 1558 1559 1561 1562 1563 1564 1565 1565 1566 1567 1567 1568 1568 1569 1569
1525 1526 1527 1529 1530 1531 1533 1534 1534 1536 1537 1538 1539 1540 1542 1543 1544 1545 1546 1547 1548 1549 1550 1551 1552 1553 1554 1556 1557 1558 1559 1560 1561 1562 1563 1564 1565 1565 1566 1566 1567 1567
1523 1524 1525 1526 1527 1528 1530 1531 1532 1533 1534 1536 1537 1538 1539 1540 1542 1543 1544 1545 1545 1546 1548 1549 1549 1550 1551 1553 1554 1555 1557 1558 1559 1560 1561 1562 1563 1563 1563 1564 1564 1565
1521 1522 1523 1524 1525 1526 1527 1528 1530 1531 1532 1533 1534 1535 1536 1538 1539 1540 1540 1542 1543 1543 1545 1546 1546 1547 1548 1550 1551 1552 1554 1555 1556 1557 1558 1559 1560 1560 1561 1562 1562 1563
1519 1520 1521 1522 1523 1524 1525 1526 1527 1528 1529 1530 1530 1531 1533 1534 1535 1536 1537 1539 1540 1540 1541 1542 1543 1545 1545 1546 1548 1549 1551 1552 1553 1554 1555 1556 1557 1557 1558 1559 1560 1561
1516 1517 1518 1519 1520 1522 1523 1524 1525 1525 1526 1527 1528 1529 1530 1530 1531 1533 1534 1535 1536 1537 1538 1539 1540 1542 1543 1543 1544 1545 1547 1548 1549 1551 1552 1553 1554 1554 1555 1557 1557 1558
1513 1513 1515 1516 1517 1519 1520 1521 1522 1523 1523 1525 1525 1526 1527 1527 1528 1529 1530 1531 1533 1534 1535 1536 1537 1539 1540 1541 1541 1542 1544 1545 1546 1547 1548 1549 1550 1551 1552 1553 1554 1555
1509 1510 1511 1513 1514 1516 1517 1518 1519 1520 1521 1522 1523 1523 1524 1525 1525 1526 1527 1528 1530 1531 1532 1533 1534 1536 1537 1539 1539 1540 1542 1543 1543 1544 1545 1546 1546 1547 1549 1550 1551 1552
1505 1506 1508 1509 1511 1512 1513 1514 1515 1516 1518 1519 1520 1521 1522 1523 1524 1525 1525 1526 1527 1529 1530 1530 1531 1533 1535 1536 1537 1538 1540 1541 1541 1542 1542 1543 1543 1544 1546 1547 1548 1548
1503 1503 1504 1505 1507 1508 1509 1510 1512 1513 1515 1516 1517 1518 1520 1521 1522 1523 1523 1524 1525 1526 1528 1528 1529 1531 1532 1533 1534 1536 1537 1538 1538 1539 1539 1540 1541 1542 1543 1544 1544 1545
1499 1500 1501 1501 1503 1504 1505 1507 1508 1510 1511 1512 1513 1514 1516 1518 1519 1520 1521 1522 1523 1524 1525 1526 1527 1529 1530 1531 1532 1533 1534 1534 1535 1536 1537 1537 1538 1539 1540 1541 1541 1542
1495 1496 1496 1497 1498 1499 1501 1503 1504 1506 1507 1507 1508 1509 1511 1513 1515 1517 1519 1520 1521 1522 1523 1524 1525 1526 1528 1529 1529 1530 1531 1531 1532 1533 1534 1535 1536 1537 1538 1538 1539 1539
1491 1492 1492 1492 1493 1494 1496 1497 1499 1501 1502 1502 1504 1505 1506 1508 1511 1513 1515 1517 1519 1520 1521 1522 1523 1524 1525 1526 1527 1528 1528 1529 1529 1530 1531 1532 1533 1534 1535 1535 1536 1537
Wind_Speed
25 24 23 21 20 19 19 19 19 18 18 19 20 18 16 16 16 17 18 18 18 18 18 17 18 18 18 19 18 17 16 16 15 15 15 15 15 16 16 15 14 13
25 24 23 22 20 19 19 19 19 18 18 18 18 17 15 15 14 15 16 17 18 17 16 17 17 18 19 19 18 15 15 16 15 15 15 14 14 15 16 15 14 13
25 25 25 24 22 21 20 20 19 18 17 17 17 16 15 15 14 15 16 17 18 17 16 16 16 16 18 19 17 15 15 15 14 14 14 14 14 15 15 14 14 13
27 27 26 25 24 23 21 20 19 18 18 18 17 16 15 15 14 14 15 17 18 18 18 18 17 16 17 18 18 16 15 14 13 13 14 14 14 14 14 14 14 14
29 29 27 26 25 23 21 20 20 20 20 21 20 19 18 17 15 14 15 17 18 17 18 19 17 17 18 18 18 17 15 14 13 14 14 14 13 14 14 14 15 14
29 29 28 27 27 25 23 21 21 21 21 20 20 20 20 19 17 15 16 17 17 16 17 17 17 18 19 18 17 17 16 15 14 14 15 14 13 14 14 14 15 14
31 31 29 28 27 26 24 23 22 22 22 20 18 18 20 20 19 18 18 17 18 18 18 17 18 19 19 19 18 18 17 16 16 15 15 15 14 14 14 15 15 15
32 31 29 28 27 26 26 24 23 23 22 21 19 18 19 20 20 21 21 21 20 20 20 20 19 20 20 19 19 19 19 18 17 17 17 16 15 15 15 14 14 15
31 31 29 28 27 27 26 25 23 21 22 23 22 20 20 20 21 21 22 24 24 22 21 22 21 20 20 20 19 19 20 19 18 18 18 17 17 16 16 15 15 16
29 29 29 28 28 27 25 23 21 21 22 22 22 22 22 21 21 21 21 23 25 24 23 23 24 23 21 20 18 18 19 19 19 19 19 19 19 18 15 14 14 15
28 28 28 28 27 27 26 23 22 22 22 21 21 21 22 22 22 21 21 21 23 24 23 22 22 22 22 22 19 16 15 17 18 19 18 17 18 17 14 12 13 14
26 27 27 27 27 27 27 26 24 24 23 22 22 22 22 23 23 23 22 22 22 23 22 20 19 19 21 23 21 18 16 16 16 16 16 15 16 17 16 15 15 14
25 26 24 23 24 25 28 28 27 25 25 25 24 24 24 24 25 25 24 23 23 23 22 21 19 18 19 21 21 20 19 19 17 16 16 16 16 17 18 18 17 16
24 24 23 20 19 21 25 29 29 27 26 26 26 25 25 26 26 26 26 25 24 23 22 22 22 20 20 21 21 20 20 20 20 18 17 17 17 16 17 19 19 18
25 24 25 23 21 20 21 25 29 30 29 28 28 27 26 26 26 27 28 27 27 26 24 23 24 24 22 21 21 21 20 21 21 22 20 18 18 17 18 19 19 19
29 28 27 27 27 25 22 22 25 29 30 29 29 29 28 27 26 28 29 28 28 29 28 25 24 25 24 24 23 22 21 21 22 24 23 20 20 20 20 20 19 18
32 32 31 30 30 29 27 26 25 26 28 28 29 29 28 28 27 27 30 30 27 28 30 29 26 26 27 28 27 25 23 23 23 25 24 23 22 22 21 20 20 20
31 34 35 34 32 31 30 29 29 28 28 28 30 30 29 30 29 28 29 31 29 28 29 30 28 26 26 28 30 29 26 24 24 25 25 26 26 26 24 23 22 22
30 33 36 36 35 35 33 31 31 32 31 31 31 32 32 31 32 31 30 31 31 31 30 29 28 26 24 25 29 32 30 27 26 27 27 27 28 28 29 27 24 22
32 33 35 36 36 36 36 35 35 35 34 34 33 33 33 33 33 33 33 32 32 32 31 31 30 28 25 23 25 30 32 31 30 28 25 24 24 24 26 26 24 22
31 33 34 35 35 36 37 38 38 37 35 34 34 34 35 35 34 33 34 35 34 32 31 31 31 29 26 23 23 25 27 29 30 27 25 23 22 20 21 22 22 22
28 30 33 34 35 36 38 39 39 38 36 34 34 35 36 37 36 33 32 34 36 35 32 31 31 30 27 25 24 23 24 26 27 27 25 25 24 22 21 21 22 23
24 27 31 33 34 36 38 39 39 39 38 37 36 35 35 37 38 37 33 31 34 36 35 33 32 31 29 28 25 24 26 27 27 28 27 27 26 25 24 23 23 24
23 26 29 31 34 35 37 38 39 39 39 39 38 37 36 36 38 39 38 34 33 35 37 36 34 31 30 29 28 26 27 27 26 28 29 28 27 27 26 26 25 24
23 25 28 30 33 35 36 37 37 38 38 40 41 41 41 39 37 38 40 40 36 33 35 35 34 31 31 31 30 29 28 27 26 26 28 28 27 27 28 28 27 25
23 25 27 29 30 32 34 35 36 36 38 41 43 43 44 44 41 37 37 41 40 35 33 33 33 32 32 32 31 30 29 28 27 27 27 26 26 27 29 29 28 26
Wind_Direction
194 197 196 196 197 197 195 194 197 201 199 194 193 196 196 194 198 200 198 199 199 199 193 190 198 204 207 212 216 219 223 225 227 226 225 225 227 232 235 238 244 247
193 195 193 191 192 194 197 196 198 201 201 197 194 194 194 194 199 202 202 203 204 202 194 191 201 209 212 218 222 226 228 227 227 227 226 226 228 231 234 235 236 237
189 189 188 188 189 192 196 198 201 204 206 205 202 200 198 197 200 206 208 208 207 204 200 199 205 213 220 224 227 230 230 227 226 228 230 231 231 232 233 231 228 229
187 187 187 188 192 194 197 201 204 207 211 214 216 214 211 207 206 210 213 212 209 207 206 207 209 216 223 227 229 232 231 227 227 229 232 232 233 233 228 226 229 230
189 190 189 191 195 198 201 204 207 210 212 216 220 223 223 220 215 217 222 217 211 211 213 214 215 219 224 228 230 233 234 231 229 230 232 231 231 233 228 226 231 231
190 191 193 195 197 199 203 206 209 213 214 215 217 220 223 223 218 218 222 218 212 216 222 224 225 223 225 229 231 233 234 233 230 231 233 231 229 231 231 230 229 227
191 192 194 198 200 200 202 205 208 211 213 212 210 212 217 220 220 220 221 222 221 223 229 236 236 229 228 231 234 234 233 233 233 232 234 235 231 231 233 233 229 227
192 194 197 200 202 203 203 205 207 209 211 210 207 209 214 216 219 222 225 228 229 228 230 237 240 235 232 233 236 236 234 233 234 232 232 236 237 235 235 236 235 233
196 198 200 203 204 204 205 207 209 208 207 207 208 212 216 218 219 222 225 227 227 228 229 234 240 239 234 233 236 237 236 234 232 232 233 234 237 237 235 238 242 240
202 204 206 208 207 207 206 205 206 204 201 205 211 214 218 221 220 220 223 224 224 227 232 236 240 240 236 232 233 238 240 237 233 233 236 236 238 238 235 241 248 248
207 209 211 213 213 211 207 203 202 204 204 208 215 217 218 219 218 219 221 221 223 226 231 235 237 239 238 234 230 233 241 241 235 232 235 241 245 243 240 245 252 254
211 211 213 216 217 215 210 205 203 206 210 213 218 219 218 217 216 218 221 223 226 227 229 230 232 237 238 234 231 231 239 245 240 233 235 244 253 252 247 246 249 251
214 211 209 213 218 218 214 210 207 210 215 217 220 221 219 220 221 221 223 227 230 231 231 228 227 231 234 232 230 232 239 244 244 239 238 243 251 255 253 249 247 248
217 212 209 212 218 220 218 213 210 213 218 220 221 220 219 223 226 225 226 230 232 233 233 229 224 226 229 229 230 233 238 243 243 241 241 244 248 251 252 251 250 252
220 215 214 216 218 218 219 217 213 214 217 221 222 222 222 224 227 227 227 230 233 234 233 229 225 225 226 228 230 233 238 242 241 238 239 244 246 248 249 249 251 255
221 219 219 220 221 219 218 219 218 215 215 218 221 222 223 226 229 229 228 230 234 235 232 229 226 226 227 227 229 231 236 240 238 234 236 242 245 246 246 244 250 257
221 220 220 220 222 223 221 221 221 218 215 216 219 220 220 224 229 231 228 229 232 233 230 228 226 228 230 229 229 230 233 237 236 232 234 241 245 244 241 241 250 258
222 221 221 222 222 222 223 223 223 222 221 220 222 222 221 222 226 229 228 227 229 230 228 228 229 232 233 232 230 228 229 233 234 233 237 244 248 246 242 244 249 252
226 224 223 225 225 224 223 223 223 224 225 226 226 227 226 224 226 229 230 229 229 230 230 231 233 236 235 231 227 225 226 229 232 235 240 246 248 246 243 243 244 247
231 230 228 229 230 228 226 226 225 225 228 230 230 228 229 228 228 230 232 231 229 229 231 232 234 237 239 235 227 224 225 229 232 234 236 239 242 241 239 239 241 245
235 235 233 232 232 231 230 228 227 227 229 233 233 230 231 232 230 230 231 231 228 227 228 231 233 236 239 239 234 229 227 229 232 233 235 237 237 236 235 237 241 246
240 240 239 238 236 235 232 229 227 227 230 233 234 233 234 235 234 232 230 230 229 227 227 229 231 233 235 237 238 235 232 232 233 235 236 237 235 233 233 236 240 245
243 243 243 243 242 240 236 233 232 231 232 234 235 234 233 234 235 235 233 230 229 228 228 229 229 231 234 236 235 234 234 235 235 236 237 236 234 233 234 236 241 245
248 246 245 244 245 244 241 240 239 238 238 239 239 237 235 235 237 237 237 235 231 230 229 229 228 230 234 234 231 231 233 234 235 236 238 235 232 232 235 238 242 246
252 251 250 249 248 248 247 246 245 244 244 243 242 239 237 236 237 238 239 238 236 233 230 229 231 233 234 233 231 231 233 233 233 234 236 235 232 232 235 238 242 247
260 257 255 253 251 250 250 250 249 248 246 244 243 241 239 236 235 237 239 239 238 235 231 231 233 233 232 233 234 234 234 232 232 232 233 235 235 233 235 238 243 246